Powrót do katalogu

USA 447

AktywnyMilitariaVLEO
NORAD 62346·PAYLOAD·🇺🇸 United States

Wystrzelony Dec 17, 2024 z Vandenberg Space Force Base

Loading…

Następne Przeloty (najbliższe 24 godziny)

TLE

NieaktualneSource: Mike McCants

Epoka: Aug 7, 2026, 22:26 UTC

1 62346U 24243G   26219.93478232 0.00000000  00000-0  00000-0 0    07
2 62346  70.0220 152.2404 0004000  97.9437 262.0563 14.96713206    08

Śledź USA 447 w czasie rzeczywistym z AllMySat

Download on the App Store